Location: Unspecified
(0.0000°N, 0.0000°E)
Time: 23:16:22
(UTC+02:00)

Cosmos 1953 Rocket - Visible Passes

Search period start: 02 September 2014 00:00
Search period end: 12 September 2014 00:00
Orbit: 607 x 636 km, 82.5° (Epoch: 01 September)

Date Brightness Start Highest point End Pass type
(mag) Time Alt. Az. Time Alt. Az. Time Alt. Az.
02 Sep 6.6 07:27:29 10° SE 07:30:46 20° E 07:34:03 10° NE visible
05 Sep 7.3 06:46:43 10° ESE 06:47:21 10° E 06:48:00 10° E visible
05 Sep 6.6 20:30:57 10° NW 20:34:02 19° W 20:37:06 10° SW visible
06 Sep 6.2 07:01:50 10° SSE 07:05:26 24° E 07:09:01 10° NE visible
07 Sep 4.4 07:19:07 10° S 07:23:30 56° E 07:27:52 10° NNE visible
09 Sep 6.9 06:20:07 10° ESE 06:22:01 13° E 06:23:54 10° ENE visible
10 Sep 5.7 06:36:14 10° SSE 06:40:05 28° E 06:43:55 10° NE visible
11 Sep 4.0 06:53:42 10° S 06:58:09 68° E 07:02:35 10° N visible
